{"data":{"norad_id":50841,"epoch":"2026-09-19T23:23:44.369376Z","epoch_age_seconds":93592,"freshness":"FRESH","line1":"1 50841U 22001AQ  26262.97481909  .00000418  00000+0  24042-4 0  9996","line2":"2 50841  53.1610  12.2787 0000911  80.4403 279.6702 15.33553064259793","mean_motion":15.33553064,"eccentricity":9.11e-5,"inclination_deg":53.161,"raan_deg":12.2787,"arg_perigee_deg":80.4403,"mean_anomaly_deg":279.6702,"bstar":2.4042e-5,"rev_number":25979,"period_min":93.899587422428,"perigee_km":464.5982409493,"apogee_km":465.84510089914,"semimajor_km":6843.3586709242,"source":"CELESTRAK","updated_at":"2026-09-20T09:00:39.581882Z"}}